TimeEDT,TemperatureF,Dew PointF,Humidity,Sea Level PressureIn,VisibilityMPH,Wind Direction,Wind SpeedMPH,Gust SpeedMPH,PrecipitationIn,Events,Conditions,WindDirDegrees,DateUTC
12:15 AM,42.8,39.2,87,29.72,8.0,Calm,Calm,-,N/A,,Overcast,0,2013-03-19 04:15:00
12:35 AM,42.8,41.0,93,29.72,7.0,Calm,Calm,-,N/A,,Overcast,0,2013-03-19 04:35:00
12:55 AM,42.8,41.0,93,29.72,2.5,Calm,Calm,-,N/A,,Overcast,0,2013-03-19 04:55:00
1:15 AM,42.8,41.0,93,29.72,2.0,Calm,Calm,-,N/A,,Overcast,0,2013-03-19 05:15:00
1:35 AM,42.8,42.8,100,29.72,4.0,West,3.5,-,N/A,,Overcast,260,2013-03-19 05:35:00
1:55 AM,44.6,42.8,93,29.73,5.0,West,12.7,21.9,N/A,,Mostly Cloudy,260,2013-03-19 05:55:00
2:15 AM,44.6,42.8,93,29.74,5.0,West,16.1,19.6,N/A,,Overcast,260,2013-03-19 06:15:00
2:35 AM,42.8,39.2,87,29.75,7.0,West,9.2,23.0,N/A,,Overcast,260,2013-03-19 06:35:00
2:55 AM,42.8,39.2,87,29.76,10.0,West,9.2,18.4,N/A,,Overcast,260,2013-03-19 06:55:00
3:15 AM,41.0,39.2,93,29.76,5.0,West,6.9,-,N/A,,Overcast,270,2013-03-19 07:15:00
3:35 AM,39.2,37.4,93,29.77,10.0,West,9.2,17.3,N/A,,Overcast,270,2013-03-19 07:35:00
3:55 AM,39.2,37.4,93,29.77,10.0,West,6.9,-,N/A,,Overcast,260,2013-03-19 07:55:00
4:15 AM,39.2,35.6,87,29.79,10.0,WNW,8.1,-,N/A,,Overcast,290,2013-03-19 08:15:00
4:35 AM,37.4,32.0,81,29.80,10.0,West,10.4,16.1,N/A,,Overcast,270,2013-03-19 08:35:00
4:55 AM,37.4,32.0,81,29.81,10.0,West,12.7,-,N/A,,Overcast,270,2013-03-19 08:55:00
5:15 AM,37.4,32.0,81,29.82,10.0,West,10.4,-,N/A,,Overcast,260,2013-03-19 09:15:00
5:35 AM,37.4,30.2,75,29.83,10.0,WSW,16.1,19.6,N/A,,Overcast,240,2013-03-19 09:35:00
5:55 AM,37.4,28.4,70,29.83,10.0,WSW,21.9,31.1,N/A,,Overcast,240,2013-03-19 09:55:00
6:15 AM,37.4,28.4,70,29.83,10.0,SW,13.8,17.3,N/A,,Overcast,230,2013-03-19 10:15:00
6:35 AM,35.6,26.6,70,29.83,10.0,SW,12.7,17.3,N/A,,Overcast,230,2013-03-19 10:35:00
6:55 AM,37.4,26.6,65,29.84,10.0,WSW,8.1,17.3,N/A,,Overcast,240,2013-03-19 10:55:00
7:15 AM,35.6,26.6,70,29.84,10.0,SW,12.7,19.6,N/A,,Overcast,230,2013-03-19 11:15:00
7:35 AM,35.6,26.6,70,29.85,10.0,SSW,8.1,-,N/A,,Overcast,210,2013-03-19 11:35:00
7:55 AM,37.4,28.4,70,29.84,10.0,SW,10.4,20.7,N/A,,Overcast,220,2013-03-19 11:55:00
8:15 AM,37.4,26.6,65,29.84,10.0,SW,13.8,20.7,N/A,,Overcast,230,2013-03-19 12:15:00
8:35 AM,37.4,26.6,65,29.83,10.0,SW,10.4,19.6,N/A,,Overcast,220,2013-03-19 12:35:00
8:55 AM,37.4,26.6,65,29.83,10.0,SW,18.4,24.2,N/A,,Overcast,220,2013-03-19 12:55:00
9:15 AM,37.4,28.4,70,29.82,10.0,SSW,11.5,17.3,N/A,,Overcast,210,2013-03-19 13:15:00
9:35 AM,39.2,28.4,65,29.82,10.0,SW,17.3,25.3,N/A,,Overcast,220,2013-03-19 13:35:00
9:55 AM,39.2,28.4,65,29.82,10.0,SW,12.7,32.2,N/A,,Overcast,230,2013-03-19 13:55:00
10:15 AM,37.4,26.6,65,29.82,10.0,SW,17.3,26.5,N/A,,Overcast,230,2013-03-19 14:15:00
10:35 AM,39.2,28.4,65,29.80,10.0,WSW,20.7,26.5,N/A,,Mostly Cloudy,240,2013-03-19 14:35:00
10:55 AM,39.2,28.4,65,29.80,10.0,SW,18.4,26.5,N/A,,Mostly Cloudy,220,2013-03-19 14:55:00
11:15 AM,41.0,28.4,61,29.81,10.0,SW,18.4,31.1,N/A,,Overcast,220,2013-03-19 15:15:00
11:35 AM,42.8,26.6,53,29.80,10.0,SW,21.9,27.6,N/A,,Mostly Cloudy,230,2013-03-19 15:35:00
11:55 AM,42.8,26.6,53,29.81,10.0,WSW,25.3,32.2,N/A,,Mostly Cloudy,240,2013-03-19 15:55:00
12:15 PM,41.0,23.0,49,29.80,10.0,WSW,21.9,32.2,N/A,,Mostly Cloudy,240,2013-03-19 16:15:00
12:35 PM,42.8,24.8,49,29.80,10.0,WSW,17.3,31.1,N/A,,Partly Cloudy,240,2013-03-19 16:35:00
12:55 PM,44.6,21.2,39,29.81,10.0,West,19.6,32.2,N/A,,Scattered Clouds,260,2013-03-19 16:55:00
1:15 PM,42.8,17.6,36,29.81,10.0,WSW,21.9,38.0,N/A,,Mostly Cloudy,250,2013-03-19 17:15:00
1:35 PM,42.8,19.4,39,29.82,10.0,West,17.3,32.2,N/A,,Partly Cloudy,280,2013-03-19 17:35:00
1:55 PM,42.8,19.4,39,29.83,10.0,West,18.4,29.9,N/A,,Partly Cloudy,260,2013-03-19 17:55:00
2:15 PM,41.0,19.4,42,29.83,10.0,West,13.8,31.1,N/A,,Partly Cloudy,260,2013-03-19 18:15:00
2:35 PM,41.0,17.6,39,29.83,10.0,West,23.0,43.7,N/A,,Partly Cloudy,260,2013-03-19 18:35:00
2:55 PM,41.0,19.4,42,29.84,10.0,West,19.6,29.9,N/A,,Clear,270,2013-03-19 18:55:00
3:15 PM,39.2,17.6,42,29.85,10.0,West,25.3,32.2,N/A,,Partly Cloudy,280,2013-03-19 19:15:00
3:35 PM,39.2,17.6,42,29.86,10.0,West,19.6,39.1,N/A,,Partly Cloudy,260,2013-03-19 19:35:00
3:55 PM,39.2,17.6,42,29.86,10.0,WSW,21.9,32.2,N/A,,Scattered Clouds,250,2013-03-19 19:55:00
4:15 PM,39.2,15.8,39,29.87,10.0,WSW,15.0,34.5,N/A,,Scattered Clouds,250,2013-03-19 20:15:00
4:35 PM,39.2,15.8,39,29.88,10.0,West,27.6,35.7,N/A,,Scattered Clouds,260,2013-03-19 20:35:00
4:55 PM,37.4,15.8,41,29.88,10.0,WSW,16.1,33.4,N/A,,Overcast,250,2013-03-19 20:55:00
5:15 PM,37.4,17.6,45,29.89,10.0,West,16.1,29.9,N/A,,Overcast,270,2013-03-19 21:15:00
5:35 PM,37.4,17.6,45,29.90,10.0,West,21.9,29.9,N/A,,Overcast,270,2013-03-19 21:35:00
5:55 PM,37.4,15.8,41,29.91,10.0,WSW,23.0,32.2,N/A,,Overcast,250,2013-03-19 21:55:00
6:15 PM,35.6,17.6,48,29.91,10.0,West,16.1,32.2,N/A,,Overcast,270,2013-03-19 22:15:00
6:35 PM,35.6,17.6,48,29.92,10.0,West,18.4,28.8,N/A,,Overcast,260,2013-03-19 22:35:00
6:55 PM,35.6,17.6,48,29.92,10.0,WSW,16.1,27.6,N/A,,Overcast,250,2013-03-19 22:55:00
7:15 PM,35.6,17.6,48,29.93,10.0,West,13.8,29.9,N/A,,Overcast,270,2013-03-19 23:15:00
7:35 PM,33.8,15.8,48,29.94,10.0,West,12.7,19.6,N/A,,Overcast,270,2013-03-19 23:35:00
7:55 PM,33.8,15.8,48,29.94,10.0,West,12.7,20.7,N/A,,Overcast,280,2013-03-19 23:55:00
8:15 PM,33.8,15.8,48,29.95,10.0,West,17.3,23.0,N/A,,Overcast,280,2013-03-20 00:15:00
8:35 PM,33.8,15.8,48,29.96,10.0,West,12.7,19.6,N/A,,Overcast,270,2013-03-20 00:35:00
8:55 PM,33.8,15.8,48,29.97,10.0,WNW,8.1,-,N/A,,Overcast,290,2013-03-20 00:55:00
9:15 PM,32.0,15.8,51,29.98,10.0,West,9.2,16.1,N/A,,Scattered Clouds,270,2013-03-20 01:15:00
9:35 PM,30.2,15.8,55,29.99,10.0,West,10.4,19.6,N/A,,Partly Cloudy,270,2013-03-20 01:35:00
9:55 PM,30.2,15.8,55,29.99,10.0,West,8.1,17.3,N/A,,Partly Cloudy,260,2013-03-20 01:55:00
10:15 PM,30.2,15.8,55,29.99,10.0,WSW,10.4,17.3,N/A,,Clear,250,2013-03-20 02:15:00
10:35 PM,30.2,15.8,55,30.00,10.0,West,8.1,16.1,N/A,,Clear,260,2013-03-20 02:35:00
10:55 PM,30.2,15.8,55,29.99,10.0,West,9.2,-,N/A,,Clear,260,2013-03-20 02:55:00
11:15 PM,28.4,15.8,59,29.99,10.0,WSW,5.8,-,N/A,,Clear,250,2013-03-20 03:15:00
11:35 PM,28.4,17.6,64,29.99,10.0,WSW,6.9,-,N/A,,Clear,250,2013-03-20 03:35:00
11:55 PM,28.4,17.6,64,29.99,10.0,WSW,9.2,-,N/A,,Clear,250,2013-03-20 03:55:00